Regional Weather Roundup
Issued by NWS

Home | Current Version | Previous Version | Graphics & Text | Print | Product List | Glossary On
Versions: 1 2 3 4 5 6 7 8 9 10 11 12 13 14 15 16 17 18 19 20 21 22 23 24 25 26 27 28 29 30 31 32 33 34 35 36 37 38 39 40 41 42 43 44 45 46 47 48 49 50
221
ASUS43 KMPX 231510
RWRMN
WEATHER ROUNDUP FOR MINNESOTA
NATIONAL WEATHER SERVICE TWIN CITIES/CHANHASSEN MN
1000 AM CDT WED MAY 23 2018


NOTE: "FAIR" INDICATES FEW OR NO CLOUDS BELOW 12,000 FEET WITH NO
SIGNIFICANT WEATHER AND/OR OBSTRUCTIONS TO VISIBILITY. N/A MEANS
CURRENT SKY AND/OR WEATHER CONDITIONS ARE NOT AVAILABLE.

MNZ060>063-068>070-231600-
   Twin Cities Metro

CITY           SKY/WX    TMP DP  RH WIND       PRES   REMARKS
TWIN CITIES    PTSUNNY   70  62  76 S8        30.11R
ST PAUL        FAIR      70  61  73 S8        30.10F
CRYSTAL        FAIR      71  61  70 SE7       30.09R
BLAINE         PTSUNNY   73  63  68 SE10      30.09S
LAKEVILLE      FAIR      72  63  73 S8        30.10R
EDEN PRAIRIE   FAIR      71  61  70 S9        30.10R
SOUTH ST PAUL  FAIR      70  61  71 S10       30.11R
LAKE ELMO      FAIR      70  63  78 S8        30.12R
$$
MNZ001>005-007-008-013>017-022>024-027-028-231600-
   Northwest Minnesota

CITY           SKY/WX    TMP DP  RH WIND       PRES   REMARKS
BEMIDJI        FAIR      71  59  66 SE8       30.08F
HALLOCK        FAIR      77  59  53 S13       30.03S
ROSEAU         FAIR      75  61  60 SE9       30.07F
WARROAD        FAIR      70  63  78 NE3       30.08F
THIEF RVR FALL FAIR      73  58  59 SE6       30.06F
CROOKSTON      FAIR      75  59  57 S9        30.02F
FOSSTON        FAIR      73  55  53 SE8       30.06F
DETROIT LAKES  FAIR      70  61  73 SE8       30.06S
MOORHEAD       FAIR      73  61  64 SE10      29.99F
PARK RAPIDS    FAIR      71  60  68 VRB5      30.07F
MAHNOMEN       FAIR      74  59  58 S6        30.03F
$$
MNZ006-009>011-018-025>026-231600-
   North Central Minnesota

CITY           SKY/WX    TMP DP  RH WIND       PRES   REMARKS
BAUDETTE       FAIR      73  57  57 S7        30.09F
FLAG ISLAND    FAIR      63  57  82 SE8       30.08S
INTL FALLS     FAIR      75  57  53 CALM      30.11S
WASKISH          N/A     73  57  56 S6        30.09F
BIG FORK       FAIR      73  57  56 CALM      30.11F
LONGVILLE      FAIR      72  57  60 S8        30.10F
GRAND RAPIDS   FAIR      70  57  63 SE7       30.13F
CRANE LAKE     FAIR      72  55  56 S3        30.13F
ORR            FAIR      72  54  53 CALM      30.10F
COOK           FAIR      72  57  60 S5        30.13F
WALKER         FAIR      67  58  72 E5        30.08F
$$
MNZ012-019>021-037-231600-
   Northeast Minnesota

CITY           SKY/WX    TMP DP  RH WIND       PRES   REMARKS
DULUTH         FAIR      73  55  53 VRB3      30.14F
ELY            FAIR      73  52  46 CALM      30.13F
HIBBING        FAIR      70  55  59 VRB5      30.12F
EVELETH        FAIR      70  57  64 S3        30.14F
DULUTH HARBOR  FAIR      68  59  73 E5        30.13F
TWO HARBORS    FAIR      81  61  50 S3        30.11F
SILVER BAY     FAIR      77  57  50 SE7       30.11F
GRAND MARAIS     N/A     47  38  71 NE8       30.14F
G MARAIS ARPRT FAIR      75  36  23 S5        30.16S
$$
MNZ029>031-032-039>041-046>048-054>057-064-231600-
   West Central Minnesota

CITY           SKY/WX    TMP DP  RH WIND       PRES   REMARKS
FERGUS FALLS   FAIR      70  61  73 SE14      29.98F
WHEATON        LGT RAIN  64  61  88 SE9       30.03R
MORRIS         CLOUDY    72  63  73 SE13      30.04F
ALEXANDRIA     FAIR      72  62  71 SE6       30.08S
ELBOW LAKE     FAIR      68  62  79 SE9       30.03F
WADENA         FAIR      70  61  73 E5        30.07S
GLENWOOD       FAIR      68  63  83 SE10      30.09R
APPLETON       MOSUNNY   66  61  82 E7        30.06S
BENSON         CLOUDY    68  61  77 S8        30.09F
ORTONVILLE     CLOUDY    68  63  83 SE17      30.04S
MADISON        CLOUDY    70  66  88 SE12      30.06S
WILLMAR        FAIR      64  61  88 SE5       30.12F
$$
MNZ033>034-036-042>043-049>051-058-059-231600-
   Central Minnesota

CITY           SKY/WX    TMP DP  RH WIND       PRES   REMARKS
ST CLOUD       FAIR      69  60  73 VRB5      30.09R
SAUK CENTRE    FAIR      67  61  81 SE6       30.09S
PAYNESVILLE    FAIR      66  62  87 S3        30.11R
PINE RIVER     FAIR      68  57  68 SE8       30.11F
BRAINERD       FAIR      73  59  61 S7        30.10S
STAPLES        FAIR      72  59  64 CALM      30.09R
LONG PRAIRIE   FAIR      68  61  77 E5        30.10R
LITTLE FALLS   FAIR      70  61  73 SE6       30.10R
LITCHFIELD     FAIR      70  64  83 CALM      30.12R
BUFFALO        FAIR      70  60  69 SE6       30.11R
MAPLE LAKE     FAIR      71  63  75 CALM      30.11R
HUTCHINSON     PTSUNNY   69  62  79 S6        30.14R
$$
MNZ037-044-045-052-053-231600-
   East Central Minnesota

CITY           SKY/WX    TMP DP  RH WIND       PRES   REMARKS
PRINCETON      FAIR      73  63  68 SE6       30.09S
MORA           FAIR      70  59  68 SE5       30.12S
CAMBRIDGE      FAIR      73  61  64 SE6       30.10R
RUSH CITY      FAIR      71  60  67 SE3       30.10F
MOOSE LAKE     PTSUNNY   70  55  60 SE3       30.11F
HINCKLEY       CLOUDY    70  59  68 E7        30.12S
CLOQUET        FAIR      72  54  53 SE8       30.14S
MCGREGOR       PTSUNNY   72  55  56 SE7       30.12F
$$
MNZ071>073-080-081-089-090-097-098-231600-
   Southwest Minnesota

CITY           SKY/WX    TMP DP  RH WIND       PRES   REMARKS
MONTEVIDEO     CLOUDY    64  63  94 SE10      30.07R
GRANITE FALLS  TSTM      65  63  93 SE17      30.09F
CANBY          PTSUNNY   66  62  87 E13G20    30.07S
MARSHALL       TSTM      63  61  94 S15       30.12R FOG
REDWOOD FALLS  TSTM      62  62 100 CALM      30.13R FOG
OLIVIA         TSTM      63  61  94 S15       30.11S
PIPESTONE      CLOUDY    72  63  73 S18G26    30.07R
WINDOM         CLOUDY    70  50  49 S16G23    30.09R
WORTHINGTON      N/A     71  60  68 SE28G33   30.08S
JACKSON        PTSUNNY   68  59  73 S15G22    30.11R
TRACY          CLOUDY    66  60  81 NE5       30.12R THUNDER
SLAYTON        CLOUDY    68  61  78 SE14      30.09R
$$
MNZ065>067-074>077-082>085-091>093-231600-
   South Central Minnesota

CITY           SKY/WX    TMP DP  RH WIND       PRES   REMARKS
MANKATO        FAIR      68  64  87 SE7       30.10R
NEW ULM        CLOUDY    64  61  88 NE6       30.10R
ST JAMES       CLOUDY    70  61  73 SE20      30.09R
FAIRMONT       PTSUNNY   69  63  81 S21       30.09S
GLENCOE        PTSUNNY   70  61  73 S8        30.12R
FARIBAULT      FAIR      72  61  68 S6        30.11R
OWATONNA       FAIR      68  63  83 SE12      30.11S
WASECA         FAIR      70  64  83 E7        30.11S
ALBERT LEA     FAIR      70  61  73 S10       30.10F
$$
MNZ078>079-086>088-094>096-231600-
   Southeast Minnesota

CITY           SKY/WX    TMP DP  RH WIND       PRES   REMARKS
ROCHESTER      FAIR      68  63  84 S12       30.13F
RED WING       FAIR      70  57  64 SE6       30.10F
STANTON        FAIR      72  62  71 S13       30.10R
DODGE CENTER   FAIR      66  63  88 S10       30.13R
WINONA         FAIR      64  59  82 SE6       30.13F
AUSTIN         FAIR      68  63  83 S13       30.11F
PRESTON        FAIR      67  61  80 S9        30.15R
$$
ABBREVIATIONS USED IN REMARKS
   TC - TEMPERATURES IN CELSIUS
  WCI - WIND CHILL INDEX
   HX - HEAT INDEX
  VSB - VISIBILITY
$$




USA.gov is the U.S. government's official web portal to all federal, state and local government web resources and services.